TimeEDT,TemperatureF,Dew PointF,Humidity,Sea Level PressureIn,VisibilityMPH,Wind Direction,Wind SpeedMPH,Gust SpeedMPH,PrecipitationIn,Events,Conditions,WindDirDegrees,DateUTC
12:54 AM,59.0,53.1,81,30.04,10.0,NNE,4.6,-,N/A,,Clear,20,2013-07-25 04:54:00
1:54 AM,57.0,52.0,83,30.04,10.0,Calm,Calm,-,N/A,,Clear,0,2013-07-25 05:54:00
2:54 AM,55.9,52.0,87,30.04,10.0,Calm,Calm,-,N/A,,Clear,0,2013-07-25 06:54:00
3:54 AM,55.0,53.1,93,30.04,10.0,Calm,Calm,-,N/A,,Clear,0,2013-07-25 07:54:00
4:54 AM,54.0,52.0,93,30.05,10.0,Calm,Calm,-,N/A,,Clear,0,2013-07-25 08:54:00
5:54 AM,54.0,52.0,93,30.06,10.0,Calm,Calm,-,N/A,,Clear,0,2013-07-25 09:54:00
6:54 AM,54.0,52.0,93,30.07,10.0,Calm,Calm,-,N/A,,Clear,0,2013-07-25 10:54:00
7:54 AM,57.0,54.0,89,30.08,10.0,Calm,Calm,-,N/A,,Clear,0,2013-07-25 11:54:00
8:54 AM,62.1,55.9,80,30.10,10.0,Calm,Calm,-,N/A,,Clear,0,2013-07-25 12:54:00
9:54 AM,66.0,55.0,68,30.12,10.0,Calm,Calm,-,N/A,,Clear,0,2013-07-25 13:54:00
10:54 AM,69.1,55.9,63,30.10,10.0,Calm,Calm,-,N/A,,Clear,0,2013-07-25 14:54:00
11:54 AM,72.0,54.0,53,30.11,10.0,Calm,Calm,-,N/A,,Scattered Clouds,0,2013-07-25 15:54:00
12:54 PM,75.0,55.9,51,30.11,10.0,Variable,4.6,-,N/A,,Overcast,0,2013-07-25 16:54:00
1:54 PM,75.0,55.0,50,30.11,10.0,WNW,3.5,-,N/A,,Scattered Clouds,290,2013-07-25 17:54:00
2:54 PM,75.0,55.0,50,30.11,10.0,Calm,Calm,-,N/A,,Mostly Cloudy,0,2013-07-25 18:54:00
3:54 PM,73.9,55.0,52,30.10,10.0,Variable,4.6,-,N/A,,Scattered Clouds,0,2013-07-25 19:54:00
4:54 PM,77.0,55.9,48,30.09,10.0,NNE,6.9,-,N/A,,Mostly Cloudy,30,2013-07-25 20:54:00
5:54 PM,75.9,53.1,45,30.07,10.0,Calm,Calm,-,N/A,,Partly Cloudy,0,2013-07-25 21:54:00
6:54 PM,75.9,54.0,46,30.07,10.0,Calm,Calm,-,N/A,,Scattered Clouds,0,2013-07-25 22:54:00
7:54 PM,75.0,57.0,53,30.07,10.0,Calm,Calm,-,N/A,,Mostly Cloudy,0,2013-07-25 23:54:00
8:54 PM,71.1,57.9,63,30.07,10.0,Calm,Calm,-,N/A,,Scattered Clouds,0,2013-07-26 00:54:00
9:54 PM,64.9,59.0,81,30.07,10.0,Calm,Calm,-,N/A,,Clear,0,2013-07-26 01:54:00
10:54 PM,63.0,59.0,87,30.09,10.0,Calm,Calm,-,N/A,,Clear,0,2013-07-26 02:54:00
11:54 PM,63.0,59.0,87,30.10,10.0,Calm,Calm,-,N/A,,Clear,0,2013-07-26 03:54:00